EHI
5 4 6 12 18 22 25 26 28 30 30 29 27 23 17 13 10 9 10 11 12 12 11 9 9 10 9 7 5 4 3 6 8 8 7 6 5 4 4 3 3 2 1
6 5 7 12 17 23 25 26 30 32 31 29 27 23 19 15 12 12 12 13 12 12 11 12 11 11 11 10 9 7 6 6 7 7 7 6 5 4 3 3 2 2 1
9 9 10 13 17 21 23 25 31 35 33 30 27 23 20 19 17 17 15 14 13 12 13 15 14 12 12 13 13 12 10 9 8 8 7 7 5 3 2 1 1 1 0
13 13 14 15 17 18 20 24 30 35 35 31 27 24 22 21 20 19 17 15 13 13 15 18 18 17 15 14 13 12 12 11 9 9 9 8 6 3 1 0 1 1 0
16 16 16 15 16 18 20 25 30 35 37 33 29 27 26 23 21 20 20 18 15 15 17 20 22 21 18 15 12 11 12 12 11 11 10 9 7 5 2 1 2 2 1
17 18 16 16 18 20 22 26 33 39 41 38 34 32 31 28 25 24 24 20 16 17 20 23 24 23 20 15 12 11 12 13 13 13 11 9 8 7 4 2 3 3 3
20 20 19 19 22 24 26 30 36 42 45 43 39 37 36 33 29 27 25 19 14 17 23 24 24 22 19 14 11 10 12 13 14 15 14 11 9 8 6 4 3 3 3
21 22 22 24 25 27 30 35 38 42 44 44 42 40 38 33 29 26 22 17 14 18 23 24 22 20 16 13 11 10 12 12 13 15 15 13 10 8 7 5 4 4 4
19 21 24 25 27 28 32 37 39 38 38 39 40 38 35 32 29 25 19 17 17 20 22 21 18 16 14 11 11 11 11 11 11 13 15 14 11 10 9 7 6 6 5
17 18 21 24 25 27 31 35 36 35 33 33 33 31 29 27 25 22 18 17 19 22 21 18 16 15 12 10 9 10 10 10 10 11 12 12 12 12 12 11 9 9 8
15 16 17 20 23 25 29 33 34 33 31 30 29 28 27 24 20 18 17 18 20 23 21 17 16 15 11 7 7 8 8 8 8 8 9 10 10 11 13 12 11 10 10
15 15 14 16 22 28 29 30 33 31 29 29 30 31 30 25 19 17 18 19 21 22 20 17 16 14 9 6 6 7 8 6 6 7 8 8 8 10 12 13 12 10 10
17 16 14 15 21 28 30 29 30 28 26 28 33 35 33 26 20 18 18 20 20 19 18 16 15 11 6 4 5 5 5 5 5 6 8 8 8 10 11 12 11 10 9
21 18 16 16 18 24 27 27 27 27 26 29 34 37 33 27 23 20 19 19 19 18 16 15 13 9 5 3 3 2 2 3 4 6 8 9 9 9 10 10 10 9 9
22 19 17 17 16 18 23 25 26 27 27 29 33 35 33 29 27 26 23 21 19 17 15 13 11 7 3 1 1 1 1 2 3 5 7 7 5 6 6 7 7 7 7
19 18 17 18 17 17 20 24 25 27 28 30 31 32 31 28 28 29 26 22 19 16 13 10 7 3 1 0 0 0 1 2 2 4 5 4 2 2 2 2 2 3 4
17 17 18 20 20 19 20 23 25 26 27 28 29 29 28 25 24 25 25 22 18 14 10 7 4 1 0 0 0 0 1 1 2 4 4 3 1 1 1 1 0 1 1
18 19 20 20 21 20 18 20 21 23 24 25 25 26 24 22 20 19 21 21 18 13 9 7 4 2 1 0 0 0 0 1 3 5 5 4 3 1 2 2 2 2 2
19 20 21 20 20 18 15 14 16 20 22 23 23 22 21 21 20 18 18 19 16 11 8 8 7 4 2 1 0 0 0 1 3 4 4 4 3 1 1 2 3 3 3
18 19 21 20 17 16 15 13 15 20 23 22 22 20 19 20 20 19 16 14 12 9 8 9 8 5 2 1 0 0 1 1 3 4 4 2 1 0 1 2 3 3 4
18 19 21 20 18 18 17 17 21 25 25 23 21 20 19 19 18 16 14 11 8 7 7 7 6 4 3 1 0 0 1 2 3 4 5 3 1 0 0 1 2 3 3
19 19 20 20 20 21 20 21 25 27 27 24 21 19 18 16 14 11 10 8 7 6 5 5 4 3 3 2 1 0 1 1 2 3 4 3 1 0 0 0 1 1 1
20 20 19 19 21 23 23 23 25 26 25 23 19 16 14 11 9 7 6 5 4 3 3 3 3 3 3 3 2 1 1 0 1 2 2 1 0 0 0 0 0 0 0
19 19 19 19 20 22 22 22 22 22 21 19 15 13 10 7 5 4 3 2 1 1 1 2 3 3 4 4 4 4 3 2 2 2 1 1 1 0 0 0 0 0 0
18 18 18 18 19 19 19 19 19 17 16 13 11 9 7 5 3 2 2 1 0 0 0 1 2 2 3 3 4 4 4 3 3 3 3 2 1 1 1 1 0 0 1
17 17 16 16 16 16 17 18 17 14 12 10 8 6 5 3 1 1 1 0 0 0 0 0 1 1 1 1 1 2 2 2 2 2 3 3 1 1 2 2 1 1 1
Wind_Speed
7 7 9 9 8 8 8 8 7 7 5 4 4 4 3 3 2 1 1 1 1 1 1 1 1 1 0 1 0 0 1 1 1 1 1 2 2 1 1 0 0 1 1
7 7 8 9 10 10 9 9 8 8 7 5 4 3 3 2 2 1 1 1 1 2 2 1 1 1 1 1 1 1 1 0 1 1 1 1 3 2 1 1 1 0 1
8 8 9 10 10 10 10 8 9 8 8 7 5 4 3 3 3 3 2 1 1 2 1 2 2 1 2 1 1 1 2 1 1 1 2 1 1 1 2 1 1 1 0
7 7 7 8 9 9 9 9 9 9 8 8 6 6 4 4 3 2 1 2 2 2 2 2 2 2 2 1 2 1 1 2 1 1 1 1 1 1 1 2 2 1 1
5 6 6 6 6 8 8 9 9 9 8 8 7 7 5 4 3 2 2 2 2 2 2 2 2 2 2 1 2 1 2 2 2 1 1 1 1 2 2 1 1 2 1
4 5 5 5 5 6 7 8 9 8 9 9 8 7 6 4 3 3 2 3 2 2 2 2 2 2 2 1 2 2 2 2 2 2 2 2 2 2 1 1 1 1 1
4 5 5 6 5 5 6 8 9 9 9 9 9 8 7 6 5 4 3 3 2 2 2 2 2 2 2 2 2 2 2 2 3 3 3 2 2 1 2 2 1 1 1
4 4 5 5 5 5 6 7 8 8 8 8 8 7 7 5 4 4 3 3 2 1 1 2 2 2 2 2 2 2 2 2 3 3 3 3 3 2 2 2 2 2 1
3 3 4 4 5 5 5 7 8 8 8 8 7 6 6 4 3 4 4 2 1 1 1 2 2 2 2 2 3 2 2 2 3 3 3 4 2 3 3 3 3 3 2
3 3 3 3 4 4 5 5 6 7 8 8 6 5 5 5 4 4 3 2 2 1 2 2 2 2 2 2 3 3 2 3 3 2 3 3 3 2 3 3 3 3 3
2 2 2 3 3 4 5 5 6 6 6 7 7 6 5 5 4 4 3 2 2 2 2 2 2 2 2 2 2 3 2 3 3 3 3 3 3 3 3 2 2 2 2
2 3 3 3 4 4 4 5 5 6 6 6 7 6 6 5 4 4 3 3 2 2 2 2 2 2 2 2 2 3 2 3 3 3 3 3 2 2 3 2 2 2 2
2 3 3 3 3 3 3 4 4 5 5 6 6 6 6 5 4 3 3 2 2 2 2 2 2 2 2 2 2 2 2 2 2 2 2 2 2 2 2 2 2 2 2
2 2 3 3 3 3 3 3 4 4 5 5 6 6 5 5 4 4 3 3 2 2 2 2 2 2 2 2 2 2 2 2 2 2 2 2 2 2 2 2 3 2 2
2 3 3 3 3 3 2 3 3 4 5 5 5 5 5 4 4 4 3 3 3 3 2 2 2 2 2 1 2 2 3 2 2 2 2 1 1 2 2 2 1 2 3
2 2 3 3 3 3 3 3 3 4 4 5 5 5 4 4 4 4 3 3 2 2 2 2 2 2 0 3 3 3 2 2 2 2 1 2 2 2 3 2 2 3 3
2 2 2 3 3 3 3 3 3 4 5 4 4 5 4 4 4 3 3 3 2 2 1 2 2 1 1 3 0 2 3 2 2 1 2 2 1 2 2 3 5 3 3
1 2 2 3 3 3 4 4 4 4 4 4 4 4 4 4 4 3 3 2 2 2 2 2 1 1 2 2 1 2 3 2 1 1 1 1 1 2 2 2 1 2 2
1 2 2 3 3 4 4 4 4 4 4 4 4 3 3 4 4 3 3 2 2 2 2 2 2 1 1 2 2 3 2 1 1 1 0 0 1 2 3 2 2 2 1
1 1 2 3 3 4 4 4 4 5 4 4 3 3 3 3 3 3 2 2 2 2 2 1 1 1 1 2 2 4 2 2 2 2 2 2 1 2 3 2 2 2 1
1 2 2 3 3 4 4 5 4 4 4 4 3 3 2 2 2 2 2 2 2 2 2 1 1 1 1 2 2 3 3 2 2 2 2 2 2 1 3 3 2 2 3
1 2 2 2 3 4 5 5 4 3 3 4 4 3 2 2 2 2 2 2 2 2 2 2 2 1 1 1 2 2 3 4 3 2 1 2 2 2 3 2 1 3 5
2 2 3 3 2 3 3 4 4 4 4 4 4 3 2 1 1 2 2 2 3 2 2 2 2 1 1 2 3 4 3 4 3 1 2 0 2 4 3 4 4 4 3
3 3 3 3 3 3 3 3 4 4 4 3 3 3 2 2 1 1 2 2 1 2 2 2 2 1 1 1 2 3 4 4 3 2 2 4 4 4 2 3 4 3 2
2 3 3 3 3 3 3 3 4 4 4 3 3 3 3 2 1 1 1 1 1 1 2 2 2 2 2 1 2 2 1 1 1 1 2 2 2 3 2 2 2 2 2
3 3 3 3 4 4 3 3 4 4 4 3 3 3 2 2 2 2 1 2 1 2 1 2 3 2 2 1 1 1 1 2 2 3 3 3 3 3 2 2 2 2 2
Wind_Direction
204 201 194 191 186 184 185 186 186 179 183 184 188 185 186 191 192 189 173 205 232 220 247 273 150 274 43 357 104 132 133 125 143 161 145 140 135 116 137 149 130 140 149
198 194 193 192 191 189 190 190 191 186 189 186 191 191 195 197 182 187 163 200 215 231 212 237 234 224 198 209 211 247 246 156 196 274 257 186 155 163 140 142 154 141 137
198 194 193 194 194 192 193 194 192 188 191 187 186 183 185 194 184 187 183 187 207 211 235 223 253 256 244 199 221 227 243 243 219 293 304 298 22 141 141 147 140 137 69
201 196 191 192 196 196 193 192 189 188 187 187 190 192 197 201 190 194 170 175 197 220 218 226 237 260 262 234 241 219 250 250 241 185 267 313 340 284 175 164 145 154 168
204 195 187 187 190 193 190 186 185 186 186 192 191 198 206 205 193 187 177 208 195 217 227 221 234 246 255 258 284 283 269 258 270 261 203 193 209 245 261 205 170 171 158
191 187 177 176 177 179 185 181 181 183 183 190 193 199 201 202 204 202 198 210 204 207 215 224 235 244 257 246 254 258 237 274 281 276 252 233 225 218 228 236 220 184 145
178 174 175 176 172 174 182 180 180 183 185 187 191 195 198 199 202 215 208 230 231 222 207 234 231 249 248 252 263 252 280 267 259 261 265 260 257 259 247 238 254 251 193
168 164 171 176 172 172 180 183 181 183 183 184 188 192 197 203 201 214 232 233 254 267 233 217 220 241 248 247 246 254 251 259 263 266 269 263 255 251 233 236 240 244 212
163 162 164 170 172 172 176 179 176 175 178 180 183 189 191 200 199 205 219 228 239 248 229 231 226 231 240 251 249 256 265 262 261 261 245 254 250 246 245 242 244 253 251
166 165 162 165 166 167 170 175 174 176 178 176 181 182 182 186 195 204 199 220 229 236 224 225 231 236 240 241 250 251 258 259 259 270 281 275 268 260 247 238 247 252 258
163 168 165 157 153 156 163 173 175 176 178 176 176 177 179 181 191 198 197 197 214 215 222 221 225 230 235 242 251 265 262 261 261 257 253 260 279 275 261 248 246 242 234
158 156 154 146 150 154 163 169 174 178 179 175 172 172 173 176 187 184 183 185 201 217 221 226 224 228 227 238 251 257 261 264 265 264 264 267 259 257 263 254 243 245 238
163 159 148 146 150 154 163 167 172 175 179 172 168 166 171 173 182 181 177 186 197 201 211 217 226 236 235 239 248 260 269 269 271 272 266 262 260 261 258 245 237 236 231
165 171 161 157 149 151 163 167 164 162 165 167 165 163 169 177 181 182 177 188 194 196 205 212 226 232 239 248 247 250 263 263 266 266 263 262 264 268 258 237 230 232 231
188 182 186 172 165 159 157 153 160 158 163 170 167 164 168 175 178 179 180 187 195 195 197 209 215 221 229 254 284 246 231 238 244 243 258 279 324 353 306 293 268 238 232
216 209 202 191 186 179 172 158 155 157 164 171 166 161 166 172 172 175 174 179 186 190 193 202 205 220 238 63 6 303 247 237 239 242 255 225 197 184 209 249 297 299 265
216 218 218 209 198 185 177 170 167 161 161 164 159 159 167 171 171 172 168 172 175 175 188 196 204 201 101 87 29 306 282 245 237 241 263 283 16 235 230 192 201 226 263
223 226 222 203 192 179 177 174 163 158 159 159 158 159 168 170 166 169 169 176 179 180 193 203 198 192 121 119 159 265 246 239 230 228 256 286 321 7 315 268 223 227 224
244 237 229 202 180 179 176 170 165 158 161 159 161 167 170 167 165 169 172 175 183 191 205 204 207 203 156 153 190 256 230 200 179 174 69 331 80 21 320 264 239 232 214
228 218 203 186 176 180 174 174 172 163 165 167 168 162 171 170 165 166 181 186 198 208 215 199 213 220 211 156 216 259 230 189 195 179 162 97 46 346 315 264 253 252 272
209 179 184 182 177 179 177 181 178 175 168 161 153 147 152 158 161 165 178 193 211 215 219 188 200 213 220 160 187 276 257 228 223 214 196 125 126 246 295 285 292 308 290
198 177 175 172 170 177 182 181 177 167 150 142 139 139 146 161 146 163 189 196 199 203 205 194 209 210 194 185 180 227 273 294 251 250 240 107 157 226 257 264 287 284 277
192 173 166 155 158 172 175 168 155 149 143 141 137 135 140 152 166 183 192 203 205 221 224 217 218 217 209 169 170 194 223 264 261 290 44 51 235 237 215 201 225 244 251
190 170 162 157 157 165 157 145 144 149 151 152 146 141 145 167 178 216 224 231 227 232 235 235 240 226 221 247 205 197 194 203 216 224 182 200 218 238 247 204 212 233 261
180 165 157 161 161 159 152 146 146 152 161 163 161 162 166 165 186 219 296 270 310 318 291 286 271 263 248 309 348 307 286 298 331 272 233 229 221 226 225 228 228 243 241
168 157 159 160 157 158 157 156 156 157 164 174 173 180 185 175 197 199 187 87 79 73 55 353 321 333 4 6 276 264 297 316 300 262 244 245 252 253 248 248 247 251 263